Showing default

OPS 9322 (IDSCS 9), 2649

Orbit data source: Space-Track

OPS 9322 (IDSCS 9), 2649 is a payload satellite owned by USAF SSD (US) in GEO that was launched on Wed, 18 Jan 1967 UTC via a TITAN IIIC launch vehicle from the Air Force Eastern Test Range (AFETR). Payload-class satellites include a variety of spacecraft equipped with specific instruments for various scientific and technological missions. These include communications satellites like Starlink; space stations such as the ISS; scientific satellites like the Hubble; Earth observation satellites from companies like Planet Labs, Umbra, and HawkEye 360; GPS; miniature CubeSats for education and research; and military/defense satellites.

Not visible in the next 10 days
Identifier
2649, 1967-003B
Orbit
GEO
Country
Flag of USUS
Related business
Manufacturer
Philco-Ford WDL
Mission
Non-operational spacecraft
Bus & Motor
IDCSP, Unknown motor
Mass
45 kg wet, 45 kg dry
Launch date (UTC)
1967-01-18 (59 years ago)
Launch vehicle
TITAN IIIC
Launch site
Air Force Eastern Test Range (AFETR)
Object type
Payload
Rocket body
Debris
Shape & HBR
Unknown
Radar Cross Section
Medium (>0.1 m² and <1 m²)

Expand to show TLE details & history
Last TLE update: 2 days ago

TLE from 2 days ago
0 OPS 9322 (IDSCS 9)
1 02649U 67003B   26034.50504427 -.00000134  00000-0  00000-0 0  9998
2 02649   8.0546  45.7999 0032838 118.4000 238.8500  1.08282460137982
Epoch: 2026-02-03T12:07Z
TLE epoch observation values (Epoch: 2026-02-03T12:07:15.824Z)
Latitude
-0.44593°
Longitude
87.27981°
Altitude
33,748.073 km
Speed
3.149 km/s
True Right ascension
02h 51m 07s
True Declination
0° 26' 44"
Sunlit
Object was in daylight at epoch
Visualization orbit readout
Latitude
Unknown
Longitude
Unknown
Altitude
Unknown
Speed
Unknown
Apparent Right ascension
Unknown
Apparent Declination
Unknown
Sunlit
N/A
Visualization observer readout
Local Sidereal Time
12:27:11
Azimuth
Unknown
Elevation
Unknown
Doppler factor
Unknown
Orbital elements
Apogee altitude
33,813.164 km
Perigee altitude
33,550.068 km
Semi-major axis
40,059.753 km
Eccentricity
0.00328
Inclination
8.0546°
RAAN
45.7999°
Arg. of periapsis
118.4°
True anomaly
238.52864°
Mean anomaly
238.85°
Eccentric anomaly
238.68925°
Mean motion
0.2707 °/min
Orbital period
1,329.91 mins
BSTAR
0
Loading maneuver chart data...
Computing Atmospheric mass density...
Loading historical data...
Loading historical data...
Loading historical data...
Loading historical data...
Loading historical data...
Loading historical data...
Loading historical data...

Documentation

Showing up to 5 results
|